Home   Weather   Barcelona   Past weeks
Flag for Colombia

Past Weather in Barcelona, Colombia — Yesterday and Last 2 Weeks

Now
66 °F

Partly sunny.


Feels Like: 66 °F
Forecast: 76 / 62 °F
Wind: 6 mph from Southwest

Location: Rionegro / J. M. Cordova

Current Time: Sep 18, 2019 at 1:05:28 pm

Latest Report: Sep 18, 2019 at 12:00 pm


Visibility: N/A

Pressure: 30.32 "Hg

Humidity: 73%

Dew Point: 57 °F

Location of BarcelonaLocation

Past Weather in Barcelona — Graph

°F

Barcelona Temperature Yesterday

Maximum temperature yesterday: 75 °F (at 3:00 pm)
Minimum temperature yesterday: 59 °F (at 12:00 am)
Average temperature yesterday: 64 °F

High & Low Weather Summary for the Past Weeks

 TemperatureHumidityPressure
High77 °F (Sep 3, 12:00 pm)100% (Sep 3, 11:00 pm)30.42 "Hg (Sep 3, 11:00 pm)
Low52 °F (Sep 9, 5:00 am)32% (Sep 3, 12:00 pm)30.15 "Hg (Sep 11, 4:00 pm)
Average64 °F78%30.29 "Hg
* Reported Sep 3 12:00 pm — Sep 18 12:00 pm, Barcelona. Weather by CustomWeather, © 2019

Note: Actual official high and low records may vary slightly from our data, if they occured in-between our weather recording intervals... More about our weather records

Advertising

Barcelona Weather History for the Previous 24 Hours

Scroll right to see more
 ConditionsComfort  
Time TempWeatherWind HumidityBarometerVisibility
12:00 pm
Wed, Sep 18
66 °FPartly sunny.6 mph73%30.32 "HgN/A
11:00 am64 °FScattered clouds.6 mph73%30.33 "HgN/A
10:25 am63 °FScattered showers. Broken clouds.No wind88%30.34 "HgN/A
10:00 am59 °FDrizzle. Broken clouds.2 mph94%30.35 "HgN/A
9:20 am61 °FScattered showers. Broken clouds.No wind94%30.34 "Hg5 mi
8:00 am59 °FDrizzle. Mostly cloudy.3 mph94%30.33 "Hg2 mi
7:00 am59 °FDrizzle. Partly sunny.No wind100%30.31 "Hg2 mi
6:00 am59 °FFog.2 mph100%30.29 "Hg5 mi
5:30 am59 °FFog.2 mph94%30.28 "Hg5 mi
5:00 am59 °FPartly cloudy.2 mph94%30.27 "HgN/A
4:00 am59 °FPartly cloudy.3 mph94%30.27 "HgN/A
3:00 am59 °FPassing clouds.No wind100%30.27 "HgN/A
2:00 am59 °FPassing clouds.5 mph100%30.28 "HgN/A
1:00 am59 °FPassing clouds.2 mph94%30.29 "HgN/A
12:00 am59 °FScattered showers. Passing clouds.3 mph100%30.31 "HgN/A
11:00 pm
Tue, Sep 17
61 °FScattered showers. Passing clouds.2 mph94%30.33 "HgN/A
10:00 pm61 °FScattered showers. Partly cloudy.3 mph94%30.33 "HgN/A
9:00 pm61 °FScattered showers. Partly cloudy.5 mph94%30.31 "Hg5 mi
8:00 pm63 °FScattered showers. Passing clouds.3 mph83%30.29 "HgN/A
7:00 pm64 °FPassing clouds.5 mph83%30.26 "HgN/A
6:00 pm66 °FPassing clouds.6 mph78%30.24 "HgN/A
5:00 pm68 °FScattered clouds.5 mph73%30.21 "HgN/A
4:00 pm70 °FScattered clouds.6 mph64%30.20 "HgN/A
3:00 pm75 °FScattered clouds.2 mph47%30.22 "HgN/A
2:00 pm72 °FScattered clouds.6 mph57%30.25 "HgN/A
1:00 pm70 °FScattered showers. Scattered clouds.5 mph64%30.29 "HgN/A
Weather by CustomWeather, © 2019

See weather overview